Time,TemperatureF,DewpointF,PressureIn,WindDirection,WindDirectionDegrees,WindSpeedMPH,WindSpeedGustMPH,Humidity,HourlyPrecipIn,Conditions,Clouds,dailyrainin,SoftwareType,DateUTC
2013-02-19 00:05:00,22.1,16.3,30.05,WNW,292,2.7,-999.0,78,-99.99,,,0.00,Acu-Link.com,2013-02-19 06:05:00,
2013-02-19 00:21:00,22.1,16.3,30.05,NW,315,4.2,-999.0,78,-99.99,,,0.00,Acu-Link.com,2013-02-19 06:21:00,
2013-02-19 00:36:00,22.5,16.4,30.06,NW,315,7.3,-999.0,77,-99.99,,,0.00,Acu-Link.com,2013-02-19 06:36:00,
2013-02-19 00:51:00,22.5,16.1,30.07,WNW,292,4.2,-999.0,76,-99.99,,,0.00,Acu-Link.com,2013-02-19 06:51:00,
2013-02-19 01:06:00,21.9,16.1,30.08,NW,315,2.7,-999.0,78,-99.99,,,0.00,Acu-Link.com,2013-02-19 07:06:00,
2013-02-19 01:22:00,21.4,15.6,30.08,West,270,2.7,-999.0,78,-99.99,,,0.00,Acu-Link.com,2013-02-19 07:22:00,
2013-02-19 01:37:00,21.0,15.5,30.09,WNW,292,3.7,-999.0,79,-99.99,,,0.00,Acu-Link.com,2013-02-19 07:37:00,
2013-02-19 01:52:00,20.3,15.1,30.10,West,270,1.7,-999.0,80,-99.99,,,0.00,Acu-Link.com,2013-02-19 07:52:00,
2013-02-19 02:07:00,19.4,14.5,30.10,NW,315,2.7,-999.0,81,-99.99,,,0.00,Acu-Link.com,2013-02-19 08:07:00,
2013-02-19 02:23:00,19.4,14.0,30.11,NNW,337,3.2,-999.0,79,-99.99,,,0.00,Acu-Link.com,2013-02-19 08:23:00,
2013-02-19 02:38:00,19.0,13.6,30.10,SW,225,4.2,-999.0,79,-99.99,,,0.00,Acu-Link.com,2013-02-19 08:38:00,
2013-02-19 02:53:00,18.9,13.5,30.10,WNW,292,5.8,-999.0,79,-99.99,,,0.00,Acu-Link.com,2013-02-19 08:53:00,
2013-02-19 03:17:00,18.9,13.5,30.10,ENE,67,3.2,-999.0,79,-99.99,,,0.00,Acu-Link.com,2013-02-19 09:17:00,
2013-02-19 03:32:00,18.3,13.2,30.10,NNW,337,3.7,-999.0,80,-99.99,,,0.00,Acu-Link.com,2013-02-19 09:32:00,
2013-02-19 03:47:00,18.0,13.2,30.10,NW,315,4.7,-999.0,81,-99.99,,,0.00,Acu-Link.com,2013-02-19 09:47:00,
2013-02-19 04:02:00,17.2,12.7,30.10,NW,315,2.2,-999.0,82,-99.99,,,0.00,Acu-Link.com,2013-02-19 10:02:00,
2013-02-19 04:18:00,16.5,12.5,30.11,West,270,2.7,-999.0,84,-99.99,,,0.00,Acu-Link.com,2013-02-19 10:18:00,
2013-02-19 04:33:00,16.5,12.5,30.11,WNW,292,2.7,-999.0,84,-99.99,,,0.00,Acu-Link.com,2013-02-19 10:33:00,
2013-02-19 04:48:00,16.2,12.5,30.11,WNW,292,4.7,-999.0,85,-99.99,,,0.00,Acu-Link.com,2013-02-19 10:48:00,
2013-02-19 05:03:00,16.0,12.3,30.12,NW,315,4.7,-999.0,85,-99.99,,,0.00,Acu-Link.com,2013-02-19 11:03:00,
2013-02-19 05:18:00,16.0,12.3,30.13,NNW,337,3.7,-999.0,85,-99.99,,,0.00,Acu-Link.com,2013-02-19 11:18:00,
2013-02-19 05:33:00,16.0,11.8,30.14,NW,315,3.7,-999.0,83,-99.99,,,0.00,Acu-Link.com,2013-02-19 11:33:00,
2013-02-19 05:49:00,16.0,11.8,30.14,North,0,5.8,-999.0,83,-99.99,,,0.00,Acu-Link.com,2013-02-19 11:49:00,
2013-02-19 06:04:00,15.4,11.2,30.15,West,270,3.7,-999.0,83,-99.99,,,0.00,Acu-Link.com,2013-02-19 12:04:00,
2013-02-19 06:19:00,15.1,10.9,30.16,WNW,292,3.7,-999.0,83,-99.99,,,0.00,Acu-Link.com,2013-02-19 12:19:00,
2013-02-19 06:34:00,14.7,10.5,30.16,NNW,337,2.7,-999.0,83,-99.99,,,0.00,Acu-Link.com,2013-02-19 12:34:00,
2013-02-19 06:50:00,14.2,10.5,30.17,NW,315,2.2,-999.0,85,-99.99,,,0.00,Acu-Link.com,2013-02-19 12:50:00,
2013-02-19 07:05:00,13.6,10.2,30.17,NW,315,3.2,-999.0,86,-99.99,,,0.00,Acu-Link.com,2013-02-19 13:05:00,
2013-02-19 07:20:00,13.5,10.1,30.16,NNE,22,2.7,-999.0,86,-99.99,,,0.00,Acu-Link.com,2013-02-19 13:20:00,
2013-02-19 07:35:00,12.9,9.8,30.18,NNW,337,2.2,-999.0,87,-99.99,,,0.00,Acu-Link.com,2013-02-19 13:35:00,
2013-02-19 07:50:00,13.3,10.2,30.19,West,270,2.7,-999.0,87,-99.99,,,0.00,Acu-Link.com,2013-02-19 13:50:00,
2013-02-19 08:05:00,14.0,10.3,30.21,West,270,1.1,-999.0,85,-99.99,,,0.00,Acu-Link.com,2013-02-19 14:05:00,
2013-02-19 08:21:00,15.1,11.2,30.20,NW,315,1.7,-999.0,84,-99.99,,,0.00,Acu-Link.com,2013-02-19 14:21:00,
2013-02-19 08:36:00,16.3,11.5,30.20,WNW,292,2.7,-999.0,81,-99.99,,,0.00,Acu-Link.com,2013-02-19 14:36:00,
2013-02-19 08:51:00,17.2,11.5,30.21,NNW,337,4.2,-999.0,78,-99.99,,,0.00,Acu-Link.com,2013-02-19 14:51:00,
2013-02-19 09:07:00,17.6,11.1,30.22,NNE,22,5.3,-999.0,75,-99.99,,,0.00,Acu-Link.com,2013-02-19 15:07:00,
2013-02-19 09:22:00,18.5,11.3,30.23,NW,315,4.7,-999.0,73,-99.99,,,0.00,Acu-Link.com,2013-02-19 15:22:00,
2013-02-19 09:37:00,19.4,11.9,30.24,NW,315,3.7,-999.0,72,-99.99,,,0.00,Acu-Link.com,2013-02-19 15:37:00,
2013-02-19 09:52:00,19.2,10.4,30.24,NNE,22,5.3,-999.0,68,-99.99,,,0.00,Acu-Link.com,2013-02-19 15:52:00,
2013-02-19 10:07:00,20.3,9.7,30.24,WNW,292,4.7,-999.0,63,-99.99,,,0.00,Acu-Link.com,2013-02-19 16:07:00,
2013-02-19 10:22:00,20.5,8.1,30.24,NNE,22,5.8,-999.0,58,-99.99,,,0.00,Acu-Link.com,2013-02-19 16:22:00,
2013-02-19 10:38:00,20.8,6.4,30.23,North,0,6.3,-999.0,53,-99.99,,,0.00,Acu-Link.com,2013-02-19 16:38:00,
2013-02-19 10:53:00,21.6,5.9,30.23,NE,45,7.3,-999.0,50,-99.99,,,0.00,Acu-Link.com,2013-02-19 16:53:00,
2013-02-19 11:08:00,22.6,6.8,30.23,North,0,4.7,-999.0,50,-99.99,,,0.00,Acu-Link.com,2013-02-19 17:08:00,
2013-02-19 11:23:00,23.2,6.5,30.24,NNE,22,4.7,-999.0,48,-99.99,,,0.00,Acu-Link.com,2013-02-19 17:23:00,
2013-02-19 11:38:00,23.5,6.3,30.24,NNW,337,2.7,-999.0,47,-99.99,,,0.00,Acu-Link.com,2013-02-19 17:38:00,
2013-02-19 11:54:00,24.1,5.4,30.25,NNE,22,4.7,-999.0,44,-99.99,,,0.00,Acu-Link.com,2013-02-19 17:54:00,
2013-02-19 12:09:00,24.6,5.8,30.25,NNE,22,2.7,-999.0,44,-99.99,,,0.00,Acu-Link.com,2013-02-19 18:09:00,
2013-02-19 12:24:00,26.1,6.2,30.24,NW,315,4.2,-999.0,42,-99.99,,,0.00,Acu-Link.com,2013-02-19 18:24:00,
2013-02-19 12:39:00,26.4,5.4,30.24,SW,225,5.8,-999.0,40,-99.99,,,0.00,Acu-Link.com,2013-02-19 18:39:00,
2013-02-19 12:55:00,27.3,5.7,30.23,NNE,22,3.7,-999.0,39,-99.99,,,0.00,Acu-Link.com,2013-02-19 18:55:00,
2013-02-19 13:10:00,26.8,4.6,30.22,NNE,22,4.2,-999.0,38,-99.99,,,0.00,Acu-Link.com,2013-02-19 19:10:00,
2013-02-19 13:25:00,27.9,3.8,30.21,NNW,337,6.8,-999.0,35,-99.99,,,0.00,Acu-Link.com,2013-02-19 19:25:00,
2013-02-19 13:40:00,28.4,3.7,30.21,NNE,22,7.3,-999.0,34,-99.99,,,0.00,Acu-Link.com,2013-02-19 19:40:00,
2013-02-19 13:56:00,28.9,2.8,30.20,NNE,22,5.3,-999.0,32,-99.99,,,0.00,Acu-Link.com,2013-02-19 19:56:00,
2013-02-19 14:11:00,28.9,2.8,30.20,ENE,67,3.2,-999.0,32,-99.99,,,0.00,Acu-Link.com,2013-02-19 20:11:00,
2013-02-19 14:26:00,30.7,5.0,30.18,NW,315,2.2,-999.0,33,-99.99,,,0.00,Acu-Link.com,2013-02-19 20:26:00,
2013-02-19 14:41:00,30.2,3.2,30.17,WNW,292,3.7,-999.0,31,-99.99,,,0.00,Acu-Link.com,2013-02-19 20:41:00,
2013-02-19 14:57:00,30.4,1.2,30.17,NE,45,8.3,-999.0,28,-99.99,,,0.00,Acu-Link.com,2013-02-19 20:57:00,
2013-02-19 15:12:00,30.7,1.5,30.17,North,0,4.2,-999.0,28,-99.99,,,0.00,Acu-Link.com,2013-02-19 21:12:00,
2013-02-19 15:27:00,30.4,1.2,30.18,NE,45,3.7,-999.0,28,-99.99,,,0.00,Acu-Link.com,2013-02-19 21:27:00,
2013-02-19 15:42:00,30.9,2.4,30.18,ESE,112,4.7,-999.0,29,-99.99,,,0.00,Acu-Link.com,2013-02-19 21:42:00,
2013-02-19 15:58:00,30.0,-0.7,30.17,North,0,2.7,-999.0,26,-99.99,,,0.00,Acu-Link.com,2013-02-19 21:58:00,
2013-02-19 16:13:00,30.0,-0.7,30.17,ENE,67,3.7,-999.0,26,-99.99,,,0.00,Acu-Link.com,2013-02-19 22:13:00,
2013-02-19 16:28:00,29.8,-0.1,30.17,NE,45,3.7,-999.0,27,-99.99,,,0.00,Acu-Link.com,2013-02-19 22:28:00,
2013-02-19 16:43:00,29.3,-0.5,30.17,NW,315,4.2,-999.0,27,-99.99,,,0.00,Acu-Link.com,2013-02-19 22:43:00,
2013-02-19 16:58:00,28.9,-0.1,30.16,ENE,67,3.2,-999.0,28,-99.99,,,0.00,Acu-Link.com,2013-02-19 22:58:00,
2013-02-19 17:14:00,27.7,-1.1,30.16,ENE,67,4.2,-999.0,28,-99.99,,,0.00,Acu-Link.com,2013-02-19 23:14:00,
2013-02-19 17:29:00,27.7,-1.9,30.16,NNE,22,3.2,-999.0,27,-99.99,,,0.00,Acu-Link.com,2013-02-19 23:29:00,
2013-02-19 17:44:00,25.9,-0.5,30.16,NNW,337,3.2,-999.0,31,-99.99,,,0.00,Acu-Link.com,2013-02-19 23:44:00,
2013-02-19 17:59:00,24.4,0.7,30.16,East,90,3.7,-999.0,35,-99.99,,,0.00,Acu-Link.com,2013-02-19 23:59:00,
2013-02-19 18:15:00,23.2,1.4,30.16,East,90,1.7,-999.0,38,-99.99,,,0.00,Acu-Link.com,2013-02-20 00:15:00,
2013-02-19 18:30:00,21.9,1.9,30.16,ENE,67,2.2,-999.0,41,-99.99,,,0.00,Acu-Link.com,2013-02-20 00:30:00,
2013-02-19 18:45:00,20.5,1.1,30.17,East,90,0.0,-999.0,42,-99.99,,,0.00,Acu-Link.com,2013-02-20 00:45:00,
2013-02-19 19:00:00,19.2,1.9,30.17,NE,45,0.0,-999.0,46,-99.99,,,0.00,Acu-Link.com,2013-02-20 01:00:00,
2013-02-19 19:15:00,17.8,2.8,30.17,NE,45,0.0,-999.0,51,-99.99,,,0.00,Acu-Link.com,2013-02-20 01:15:00,
2013-02-19 19:31:00,18.0,2.5,30.17,NE,45,2.2,-999.0,50,-99.99,,,0.00,Acu-Link.com,2013-02-20 01:31:00,
2013-02-19 19:46:00,18.1,2.6,30.17,NNE,22,4.2,-999.0,50,-99.99,,,0.00,Acu-Link.com,2013-02-20 01:46:00,
2013-02-19 20:01:00,18.1,2.2,30.18,East,90,2.7,-999.0,49,-99.99,,,0.00,Acu-Link.com,2013-02-20 02:01:00,
2013-02-19 20:16:00,17.8,2.3,30.19,ENE,67,2.2,-999.0,50,-99.99,,,0.00,Acu-Link.com,2013-02-20 02:16:00,
2013-02-19 20:31:00,16.9,2.8,30.20,NE,45,1.7,-999.0,53,-99.99,,,0.00,Acu-Link.com,2013-02-20 02:31:00,
2013-02-19 20:47:00,16.2,2.9,30.21,ENE,67,2.2,-999.0,55,-99.99,,,0.00,Acu-Link.com,2013-02-20 02:47:00,
2013-02-19 21:02:00,15.3,2.8,30.22,SSE,157,0.0,-999.0,57,-99.99,,,0.00,Acu-Link.com,2013-02-20 03:02:00,
2013-02-19 21:17:00,14.4,3.4,30.22,ENE,67,1.7,-999.0,61,-99.99,,,0.00,Acu-Link.com,2013-02-20 03:17:00,
2013-02-19 21:33:00,14.5,2.8,30.22,NNE,22,4.7,-999.0,59,-99.99,,,0.00,Acu-Link.com,2013-02-20 03:33:00,
2013-02-19 21:48:00,14.5,2.8,30.22,NE,45,6.3,-999.0,59,-99.99,,,0.00,Acu-Link.com,2013-02-20 03:48:00,
2013-02-19 22:03:00,14.5,2.5,30.22,NNE,22,3.2,-999.0,58,-99.99,,,0.00,Acu-Link.com,2013-02-20 04:03:00,
2013-02-19 22:18:00,14.4,2.7,30.22,ENE,67,2.7,-999.0,59,-99.99,,,0.00,Acu-Link.com,2013-02-20 04:18:00,
2013-02-19 22:34:00,14.4,2.7,30.22,ENE,67,2.2,-999.0,59,-99.99,,,0.00,Acu-Link.com,2013-02-20 04:34:00,
2013-02-19 22:49:00,14.4,3.1,30.23,ENE,67,3.2,-999.0,60,-99.99,,,0.00,Acu-Link.com,2013-02-20 04:49:00,
2013-02-19 23:04:00,14.4,3.4,30.22,NNE,22,1.7,-999.0,61,-99.99,,,0.00,Acu-Link.com,2013-02-20 05:04:00,
2013-02-19 23:19:00,13.8,2.9,30.23,ESE,112,0.0,-999.0,61,-99.99,,,0.00,Acu-Link.com,2013-02-20 05:19:00,
2013-02-19 23:35:00,13.1,2.9,30.24,ESE,112,1.7,-999.0,63,-99.99,,,0.00,Acu-Link.com,2013-02-20 05:35:00,
2013-02-19 23:50:00,12.7,3.5,30.24,NE,45,1.7,-999.0,66,-99.99,,,0.00,Acu-Link.com,2013-02-20 05:50:00,